Location: Forst
(46.9333°N, 15.4333°E)
Time: 16:27:10
(UTC+00:00)

Okean-O - Pass Details

Date: 01 December 2020
Orbit: 639 x 640 km, 98.2° (Epoch: 27 January)

Event Time Altitude Azimuth Distance (km) Brightness Sun altitude
Rises 17:57:01 0° 181° (S) 2,930 6.1 -27.5°
Reaches altitude 10° 17:59:17 10° 188° (S) 2,026 5.3 -27.9°
Maximum altitude 18:03:31 45° 261° (W) 882 3.6 -28.6°
Drops below altitude 10° 18:07:47 10° 334° (NNW) 2,043 5.5 -29.4°
Sets 18:10:06 0° 341° (NNW) 2,958 6.3 -29.8°
